QPF
0.04 0.03 0.04 0.04 0.03 0.03 0.03 0.03 0.02 0.01 0.01 0.00 0.00 0.00 0.00 0.00 0.00 0.00 0.00 0.00 0.00 0.00 0.01 0.01 0.02 0.02 0.02 0.02 0.02 0.02 0.02 0.03 0.05 0.07 0.08 0.08 0.13 0.17 0.13 0.13 0.13 0.09 0.07 0.06
0.02 0.02 0.03 0.04 0.03 0.02 0.02 0.01 0.01 0.01 0.00 0.00 0.00 0.00 0.00 0.00 0.00 0.00 0.00 0.00 0.00 0.01 0.01 0.01 0.02 0.03 0.03 0.03 0.02 0.02 0.03 0.03 0.04 0.05 0.05 0.06 0.09 0.15 0.14 0.12 0.14 0.12 0.09 0.08
0.02 0.01 0.02 0.03 0.02 0.01 0.01 0.01 0.01 0.01 0.00 0.00 0.00 0.00 0.00 0.00 0.00 0.00 0.00 0.00 0.00 0.00 0.00 0.01 0.01 0.02 0.03 0.03 0.03 0.03 0.04 0.03 0.03 0.04 0.05 0.05 0.07 0.11 0.13 0.11 0.12 0.14 0.11 0.10
0.03 0.02 0.03 0.01 0.00 0.01 0.01 0.01 0.01 0.01 0.00 0.00 0.00 0.00 0.00 0.00 0.00 0.00 0.00 0.00 0.00 0.00 0.00 0.00 0.00 0.01 0.02 0.03 0.04 0.04 0.04 0.03 0.03 0.03 0.03 0.03 0.05 0.08 0.10 0.11 0.11 0.12 0.12 0.11
0.05 0.03 0.02 0.00 0.00 0.00 0.01 0.01 0.00 0.00 0.00 0.00 0.00 0.00 0.00 0.00 0.00 0.00 0.00 0.00 0.00 0.00 0.00 0.00 0.00 0.01 0.01 0.02 0.02 0.03 0.03 0.03 0.02 0.02 0.02 0.02 0.03 0.06 0.08 0.09 0.09 0.09 0.10 0.10
0.06 0.04 0.02 0.00 0.00 0.00 0.00 0.01 0.00 0.00 0.00 0.00 0.00 0.00 0.00 0.00 0.00 0.00 0.00 0.00 0.00 0.00 0.00 0.00 0.00 0.01 0.01 0.02 0.02 0.02 0.02 0.02 0.02 0.02 0.02 0.02 0.02 0.04 0.05 0.06 0.07 0.06 0.06 0.07
0.06 0.04 0.02 0.00 0.00 0.00 0.01 0.01 0.00 0.00 0.00 0.00 0.00 0.00 0.00 0.00 0.00 0.00 0.00 0.00 0.00 0.00 0.00 0.00 0.00 0.00 0.01 0.02 0.02 0.02 0.02 0.01 0.01 0.01 0.01 0.02 0.02 0.02 0.03 0.04 0.04 0.04 0.04 0.04
0.04 0.06 0.04 0.01 0.00 0.01 0.01 0.01 0.00 0.00 0.00 0.00 0.00 0.00 0.00 0.00 0.00 0.00 0.00 0.00 0.00 0.00 0.00 0.00 0.00 0.00 0.00 0.01 0.02 0.02 0.02 0.02 0.01 0.02 0.02 0.02 0.02 0.02 0.03 0.03 0.04 0.03 0.03 0.02
0.04 0.05 0.03 0.01 0.01 0.01 0.01 0.01 0.01 0.01 0.00 0.00 0.00 0.00 0.00 0.00 0.00 0.00 0.00 0.00 0.00 0.00 0.00 0.00 0.00 0.00 0.00 0.00 0.01 0.02 0.02 0.02 0.02 0.02 0.02 0.03 0.04 0.04 0.04 0.03 0.04 0.04 0.04 0.03
0.03 0.02 0.02 0.01 0.01 0.00 0.01 0.01 0.01 0.01 0.01 0.01 0.00 0.00 0.00 0.00 0.00 0.00 0.00 0.00 0.00 0.00 0.00 0.00 0.00 0.00 0.00 0.00 0.00 0.01 0.02 0.02 0.02 0.02 0.02 0.03 0.05 0.06 0.05 0.05 0.05 0.05 0.04 0.04
0.02 0.02 0.01 0.01 0.00 0.00 0.00 0.00 0.00 0.00 0.00 0.00 0.00 0.00 0.00 0.00 0.00 0.00 0.00 0.00 0.00 0.00 0.00 0.00 0.00 0.00 0.00 0.00 0.00 0.00 0.01 0.02 0.02 0.02 0.02 0.02 0.03 0.03 0.04 0.05 0.06 0.06 0.05 0.04
0.01 0.01 0.01 0.01 0.00 0.00 0.00 0.00 0.00 0.00 0.00 0.00 0.00 0.00 0.00 0.00 0.00 0.00 0.00 0.00 0.00 0.00 0.00 0.00 0.00 0.00 0.00 0.00 0.00 0.00 0.01 0.01 0.01 0.02 0.03 0.02 0.02 0.02 0.03 0.03 0.04 0.05 0.04 0.04
0.01 0.01 0.01 0.01 0.00 0.00 0.00 0.00 0.00 0.00 0.00 0.00 0.00 0.00 0.00 0.00 0.00 0.00 0.00 0.00 0.00 0.00 0.00 0.00 0.00 0.00 0.00 0.00 0.00 0.00 0.01 0.01 0.01 0.01 0.02 0.02 0.03 0.03 0.02 0.02 0.02 0.03 0.04 0.04
0.00 0.01 0.01 0.01 0.00 0.00 0.00 0.00 0.00 0.00 0.00 0.00 0.00 0.00 0.00 0.00 0.00 0.00 0.00 0.00 0.00 0.00 0.00 0.00 0.00 0.00 0.00 0.00 0.00 0.00 0.00 0.01 0.01 0.01 0.01 0.01 0.02 0.03 0.03 0.02 0.02 0.02 0.03 0.04
0.01 0.01 0.01 0.00 0.00 0.00 0.00 0.00 0.00 0.00 0.00 0.00 0.00 0.00 0.00 0.00 0.00 0.00 0.00 0.00 0.00 0.00 0.00 0.00 0.00 0.00 0.00 0.00 0.00 0.00 0.00 0.01 0.01 0.01 0.01 0.01 0.01 0.01 0.02 0.02 0.02 0.02 0.02 0.03
0.01 0.01 0.01 0.01 0.01 0.00 0.00 0.00 0.00 0.00 0.00 0.00 0.00 0.00 0.00 0.00 0.00 0.00 0.00 0.00 0.00 0.00 0.00 0.00 0.01 0.01 0.01 0.00 0.00 0.00 0.00 0.00 0.01 0.01 0.01 0.01 0.01 0.01 0.01 0.01 0.01 0.02 0.03 0.03
0.01 0.01 0.01 0.01 0.01 0.01 0.01 0.01 0.01 0.00 0.00 0.00 0.00 0.00 0.00 0.00 0.00 0.00 0.00 0.00 0.00 0.00 0.00 0.00 0.00 0.00 0.00 0.00 0.00 0.01 0.00 0.00 0.01 0.01 0.01 0.01 0.01 0.01 0.01 0.01 0.01 0.02 0.02 0.03
0.01 0.01 0.01 0.01 0.00 0.00 0.00 0.00 0.00 0.00 0.00 0.00 0.00 0.00 0.00 0.00 0.00 0.00 0.00 0.00 0.00 0.00 0.00 0.00 0.00 0.00 0.00 0.00 0.01 0.01 0.01 0.01 0.01 0.01 0.01 0.01 0.01 0.01 0.01 0.01 0.02 0.03 0.03 0.03
0.00 0.00 0.00 0.00 0.00 0.00 0.00 0.00 0.00 0.00 0.00 0.00 0.00 0.01 0.01 0.01 0.01 0.01 0.00 0.00 0.00 0.00 0.00 0.00 0.00 0.00 0.00 0.00 0.01 0.01 0.01 0.01 0.01 0.01 0.01 0.01 0.01 0.01 0.01 0.02 0.02 0.03 0.03 0.03
0.00 0.00 0.00 0.00 0.00 0.00 0.00 0.00 0.00 0.00 0.00 0.00 0.01 0.01 0.01 0.01 0.01 0.01 0.00 0.00 0.00 0.00 0.00 0.00 0.00 0.00 0.00 0.01 0.01 0.01 0.01 0.01 0.01 0.01 0.01 0.01 0.02 0.02 0.03 0.02 0.02 0.03 0.03 0.03
0.00 0.00 0.00 0.00 0.00 0.00 0.01 0.01 0.01 0.01 0.01 0.01 0.01 0.01 0.01 0.01 0.01 0.01 0.01 0.00 0.00 0.00 0.00 0.00 0.00 0.01 0.01 0.01 0.01 0.01 0.01 0.02 0.02 0.02 0.01 0.02 0.02 0.03 0.03 0.03 0.03 0.03 0.03 0.03
0.01 0.00 0.00 0.00 0.00 0.00 0.00 0.01 0.01 0.01 0.01 0.01 0.01 0.01 0.01 0.01 0.01 0.01 0.01 0.01 0.01 0.00 0.00 0.00 0.01 0.01 0.01 0.02 0.02 0.01 0.02 0.02 0.02 0.02 0.02 0.02 0.02 0.03 0.03 0.03 0.04 0.04 0.03 0.03
0.00 0.00 0.00 0.00 0.00 0.00 0.00 0.00 0.00 0.00 0.00 0.00 0.00 0.00 0.00 0.00 0.00 0.00 0.00 0.00 0.00 0.00 0.00 0.00 0.01 0.01 0.02 0.02 0.02 0.02 0.02 0.02 0.02 0.02 0.02 0.02 0.02 0.03 0.04 0.04 0.04 0.03 0.03 0.03
0.00 0.00 0.00 0.00 0.00 0.00 0.00 0.00 0.00 0.00 0.00 0.00 0.00 0.00 0.00 0.00 0.00 0.00 0.00 0.00 0.00 0.00 0.00 0.01 0.01 0.01 0.01 0.01 0.01 0.02 0.02 0.02 0.02 0.02 0.02 0.02 0.02 0.03 0.03 0.04 0.04 0.03 0.03 0.03
0.00 0.00 0.00 0.00 0.00 0.00 0.00 0.00 0.00 0.00 0.00 0.00 0.00 0.00 0.00 0.00 0.01 0.01 0.00 0.00 0.00 0.00 0.01 0.01 0.01 0.01 0.01 0.01 0.02 0.02 0.02 0.02 0.03 0.03 0.03 0.03 0.03 0.03 0.04 0.04 0.04 0.04 0.04 0.05
0.00 0.00 0.00 0.00 0.00 0.01 0.00 0.00 0.00 0.00 0.00 0.00 0.00 0.00 0.00 0.01 0.01 0.01 0.01 0.01 0.01 0.01 0.01 0.01 0.01 0.01 0.01 0.01 0.02 0.02 0.02 0.02 0.02 0.03 0.03 0.03 0.03 0.03 0.04 0.05 0.05 0.05 0.05 0.06
0.00 0.00 0.00 0.00 0.01 0.01 0.01 0.01 0.01 0.01 0.01 0.01 0.01 0.01 0.01 0.01 0.01 0.01 0.01 0.01 0.01 0.01 0.01 0.01 0.01 0.01 0.01 0.02 0.02 0.02 0.02 0.02 0.02 0.02 0.03 0.03 0.03 0.03 0.04 0.05 0.05 0.06 0.06 0.06
MSLP
1005.21 1004.84 1004.48 1004.09 1003.66 1003.15 1002.56 1001.90 1001.19 1000.48 999.80 999.18 998.66 998.25 997.95 997.75 997.63 997.58 997.55 997.56 997.59 997.65 997.75 997.90 998.11 998.39 998.74 999.14 999.58 1000.04 1000.51 1000.96 1001.40 1001.83 1002.25 1002.66 1003.08 1003.52 1003.97 1004.44 1004.91 1005.40 1005.88 1006.36
1005.62 1005.13 1004.63 1004.11 1003.54 1002.91 1002.24 1001.53 1000.82 1000.14 999.52 998.99 998.57 998.28 998.09 997.99 997.97 998.00 998.05 998.12 998.22 998.33 998.47 998.66 998.89 999.18 999.51 999.88 1000.27 1000.66 1001.05 1001.43 1001.80 1002.15 1002.52 1002.89 1003.29 1003.70 1004.15 1004.61 1005.09 1005.58 1006.06 1006.54
1005.93 1005.32 1004.70 1004.05 1003.38 1002.67 1001.94 1001.21 1000.50 999.85 999.28 998.81 998.47 998.25 998.13 998.10 998.15 998.23 998.35 998.49 998.65 998.83 999.03 999.27 999.55 999.87 1000.21 1000.57 1000.94 1001.30 1001.65 1001.99 1002.31 1002.64 1002.97 1003.33 1003.70 1004.11 1004.55 1005.00 1005.46 1005.92 1006.38 1006.83
1006.12 1005.41 1004.70 1003.98 1003.24 1002.50 1001.75 1001.03 1000.34 999.71 999.18 998.75 998.45 998.25 998.16 998.16 998.22 998.34 998.49 998.67 998.88 999.12 999.38 999.68 1000.02 1000.37 1000.75 1001.13 1001.51 1001.87 1002.22 1002.55 1002.88 1003.20 1003.54 1003.89 1004.27 1004.67 1005.09 1005.52 1005.95 1006.37 1006.78 1007.17
1006.24 1005.46 1004.70 1003.94 1003.20 1002.47 1001.75 1001.06 1000.41 999.83 999.33 998.91 998.61 998.40 998.29 998.26 998.30 998.40 998.55 998.74 998.98 999.25 999.56 999.90 1000.28 1000.68 1001.10 1001.51 1001.92 1002.31 1002.69 1003.05 1003.40 1003.75 1004.11 1004.48 1004.87 1005.27 1005.67 1006.06 1006.45 1006.81 1007.16 1007.48
1006.32 1005.51 1004.74 1004.01 1003.31 1002.64 1001.99 1001.37 1000.79 1000.25 999.77 999.36 999.03 998.78 998.61 998.52 998.50 998.55 998.66 998.82 999.05 999.32 999.65 1000.01 1000.42 1000.84 1001.28 1001.73 1002.17 1002.59 1003.01 1003.41 1003.81 1004.20 1004.60 1005.00 1005.40 1005.79 1006.17 1006.53 1006.86 1007.16 1007.43 1007.67
1006.39 1005.60 1004.87 1004.21 1003.60 1003.03 1002.48 1001.96 1001.46 1000.97 1000.52 1000.10 999.74 999.43 999.19 999.01 998.91 998.88 998.93 999.04 999.23 999.47 999.78 1000.13 1000.53 1000.95 1001.39 1001.85 1002.30 1002.75 1003.19 1003.63 1004.07 1004.51 1004.94 1005.36 1005.77 1006.16 1006.51 1006.83 1007.10 1007.33 1007.52 1007.69
1006.48 1005.75 1005.12 1004.56 1004.08 1003.63 1003.21 1002.80 1002.38 1001.96 1001.53 1001.12 1000.72 1000.35 1000.04 999.78 999.60 999.49 999.46 999.51 999.63 999.83 1000.09 1000.40 1000.75 1001.13 1001.54 1001.97 1002.40 1002.84 1003.29 1003.75 1004.20 1004.66 1005.10 1005.54 1005.94 1006.31 1006.63 1006.89 1007.11 1007.28 1007.41 1007.52
1006.60 1005.99 1005.48 1005.06 1004.71 1004.41 1004.12 1003.82 1003.49 1003.13 1002.74 1002.33 1001.91 1001.51 1001.15 1000.83 1000.58 1000.40 1000.31 1000.29 1000.35 1000.48 1000.68 1000.91 1001.19 1001.51 1001.84 1002.20 1002.58 1002.98 1003.39 1003.82 1004.25 1004.70 1005.13 1005.54 1005.92 1006.25 1006.53 1006.74 1006.91 1007.02 1007.09 1007.15
1006.78 1006.30 1005.94 1005.67 1005.47 1005.30 1005.13 1004.94 1004.70 1004.40 1004.05 1003.66 1003.25 1002.83 1002.45 1002.10 1001.82 1001.60 1001.47 1001.41 1001.41 1001.48 1001.59 1001.74 1001.93 1002.14 1002.38 1002.63 1002.92 1003.23 1003.57 1003.93 1004.31 1004.70 1005.08 1005.44 1005.77 1006.05 1006.27 1006.43 1006.54 1006.60 1006.64 1006.67
1007.04 1006.72 1006.51 1006.38 1006.30 1006.25 1006.19 1006.08 1005.91 1005.67 1005.37 1005.02 1004.63 1004.24 1003.87 1003.53 1003.25 1003.04 1002.89 1002.80 1002.76 1002.77 1002.81 1002.88 1002.96 1003.05 1003.17 1003.30 1003.46 1003.66 1003.89 1004.15 1004.44 1004.74 1005.05 1005.33 1005.59 1005.79 1005.95 1006.05 1006.10 1006.12 1006.13 1006.14
1007.42 1007.25 1007.17 1007.16 1007.19 1007.23 1007.24 1007.19 1007.08 1006.90 1006.64 1006.34 1006.00 1005.65 1005.33 1005.04 1004.79 1004.60 1004.46 1004.37 1004.31 1004.28 1004.25 1004.23 1004.21 1004.19 1004.17 1004.18 1004.21 1004.28 1004.39 1004.53 1004.71 1004.91 1005.11 1005.31 1005.47 1005.59 1005.67 1005.71 1005.71 1005.69 1005.67 1005.68
1007.95 1007.91 1007.94 1008.02 1008.12 1008.21 1008.26 1008.26 1008.18 1008.04 1007.84 1007.59 1007.31 1007.03 1006.76 1006.53 1006.34 1006.19 1006.08 1005.99 1005.92 1005.84 1005.76 1005.66 1005.54 1005.42 1005.29 1005.18 1005.09 1005.04 1005.03 1005.06 1005.13 1005.22 1005.32 1005.41 1005.48 1005.53 1005.53 1005.51 1005.46 1005.40 1005.36 1005.34
1008.65 1008.71 1008.82 1008.95 1009.08 1009.19 1009.26 1009.28 1009.23 1009.12 1008.96 1008.76 1008.54 1008.33 1008.13 1007.96 1007.82 1007.70 1007.61 1007.52 1007.42 1007.31 1007.17 1007.00 1006.81 1006.60 1006.38 1006.17 1005.99 1005.84 1005.73 1005.67 1005.64 1005.64 1005.65 1005.66 1005.65 1005.62 1005.55 1005.47 1005.37 1005.28 1005.21 1005.17
1009.53 1009.66 1009.80 1009.95 1010.08 1010.19 1010.25 1010.27 1010.23 1010.14 1010.01 1009.86 1009.69 1009.53 1009.38 1009.25 1009.14 1009.04 1008.95 1008.84 1008.71 1008.55 1008.36 1008.12 1007.86 1007.58 1007.30 1007.03 1006.78 1006.57 1006.40 1006.28 1006.18 1006.12 1006.06 1006.00 1005.93 1005.83 1005.72 1005.58 1005.45 1005.32 1005.22 1005.16
1010.55 1010.70 1010.85 1010.99 1011.10 1011.19 1011.23 1011.23 1011.19 1011.11 1011.01 1010.88 1010.75 1010.62 1010.50 1010.38 1010.27 1010.15 1010.02 1009.87 1009.68 1009.46 1009.20 1008.91 1008.60 1008.27 1007.94 1007.64 1007.36 1007.12 1006.93 1006.77 1006.65 1006.54 1006.45 1006.34 1006.23 1006.09 1005.94 1005.77 1005.60 1005.44 1005.31 1005.22
1011.64 1011.80 1011.93 1012.04 1012.12 1012.16 1012.18 1012.15 1012.10 1012.02 1011.93 1011.81 1011.69 1011.57 1011.44 1011.30 1011.15 1010.98 1010.79 1010.56 1010.30 1010.00 1009.68 1009.32 1008.96 1008.60 1008.26 1007.94 1007.66 1007.42 1007.23 1007.07 1006.94 1006.83 1006.72 1006.59 1006.45 1006.29 1006.11 1005.92 1005.72 1005.54 1005.38 1005.27
1012.73 1012.88 1012.98 1013.05 1013.08 1013.08 1013.06 1013.00 1012.93 1012.84 1012.73 1012.61 1012.48 1012.33 1012.17 1011.98 1011.76 1011.52 1011.23 1010.91 1010.56 1010.18 1009.78 1009.38 1008.97 1008.59 1008.24 1007.93 1007.67 1007.45 1007.27 1007.13 1007.01 1006.90 1006.78 1006.65 1006.50 1006.32 1006.13 1005.92 1005.71 1005.51 1005.34 1005.20
1013.74 1013.86 1013.93 1013.95 1013.93 1013.89 1013.82 1013.73 1013.63 1013.51 1013.38 1013.23 1013.06 1012.87 1012.65 1012.39 1012.09 1011.75 1011.37 1010.96 1010.51 1010.05 1009.59 1009.13 1008.70 1008.30 1007.95 1007.66 1007.41 1007.22 1007.06 1006.93 1006.82 1006.72 1006.60 1006.46 1006.30 1006.11 1005.91 1005.69 1005.48 1005.27 1005.09 1004.94
1014.61 1014.70 1014.73 1014.70 1014.63 1014.53 1014.41 1014.28 1014.13 1013.98 1013.81 1013.62 1013.41 1013.16 1012.87 1012.53 1012.15 1011.72 1011.25 1010.75 1010.23 1009.70 1009.19 1008.69 1008.24 1007.84 1007.49 1007.21 1006.98 1006.79 1006.65 1006.52 1006.41 1006.30 1006.17 1006.02 1005.85 1005.65 1005.44 1005.22 1005.00 1004.80 1004.62 1004.46
1015.32 1015.37 1015.35 1015.27 1015.14 1014.99 1014.81 1014.63 1014.43 1014.22 1014.00 1013.76 1013.49 1013.18 1012.83 1012.43 1011.97 1011.47 1010.93 1010.37 1009.79 1009.22 1008.68 1008.16 1007.70 1007.30 1006.95 1006.67 1006.44 1006.25 1006.10 1005.96 1005.83 1005.69 1005.54 1005.37 1005.17 1004.97 1004.75 1004.53 1004.32 1004.12 1003.95 1003.81
1015.88 1015.88 1015.80 1015.66 1015.48 1015.26 1015.02 1014.77 1014.51 1014.24 1013.96 1013.66 1013.34 1012.97 1012.56 1012.10 1011.59 1011.05 1010.47 1009.87 1009.27 1008.68 1008.12 1007.61 1007.15 1006.74 1006.39 1006.10 1005.86 1005.66 1005.47 1005.30 1005.13 1004.96 1004.77 1004.57 1004.35 1004.13 1003.91 1003.70 1003.50 1003.32 1003.17 1003.05
1016.29 1016.24 1016.10 1015.89 1015.64 1015.35 1015.04 1014.72 1014.40 1014.06 1013.72 1013.36 1012.98 1012.56 1012.10 1011.61 1011.07 1010.50 1009.90 1009.30 1008.69 1008.11 1007.56 1007.05 1006.60 1006.19 1005.84 1005.54 1005.27 1005.03 1004.80 1004.59 1004.37 1004.15 1003.92 1003.69 1003.46 1003.23 1003.01 1002.81 1002.63 1002.48 1002.36 1002.27
1016.59 1016.47 1016.26 1015.99 1015.67 1015.31 1014.93 1014.54 1014.14 1013.75 1013.34 1012.92 1012.49 1012.02 1011.53 1011.01 1010.45 1009.87 1009.28 1008.68 1008.09 1007.52 1006.99 1006.49 1006.04 1005.63 1005.27 1004.94 1004.64 1004.35 1004.08 1003.82 1003.55 1003.29 1003.03 1002.77 1002.53 1002.30 1002.10 1001.93 1001.78 1001.67 1001.59 1001.53
1016.78 1016.59 1016.31 1015.97 1015.58 1015.16 1014.72 1014.26 1013.81 1013.35 1012.89 1012.42 1011.94 1011.43 1010.91 1010.36 1009.79 1009.21 1008.61 1008.02 1007.45 1006.89 1006.36 1005.87 1005.42 1005.00 1004.62 1004.26 1003.92 1003.60 1003.28 1002.97 1002.67 1002.37 1002.09 1001.83 1001.59 1001.39 1001.21 1001.08 1000.98 1000.91 1000.87 1000.86
1016.88 1016.61 1016.27 1015.87 1015.42 1014.95 1014.45 1013.95 1013.44 1012.94 1012.43 1011.91 1011.39 1010.85 1010.29 1009.71 1009.12 1008.53 1007.92 1007.33 1006.75 1006.19 1005.65 1005.15 1004.68 1004.24 1003.82 1003.43 1003.06 1002.69 1002.34 1002.00 1001.67 1001.37 1001.08 1000.83 1000.62 1000.45 1000.32 1000.23 1000.19 1000.17 1000.18 1000.21
1016.86 1016.53 1016.13 1015.68 1015.20 1014.69 1014.16 1013.63 1013.09 1012.55 1012.01 1011.46 1010.89 1010.31 1009.72 1009.10 1008.48 1007.85 1007.21 1006.59 1005.97 1005.39 1004.82 1004.29 1003.78 1003.30 1002.85 1002.42 1002.01 1001.61 1001.24 1000.88 1000.54 1000.24 999.97 999.75 999.57 999.44 999.37 999.34 999.34 999.38 999.44 999.51
Thickness
5461 5469 5468 5471 5475 5474 5473 5476 5478 5491 5496 5511 5513 5511 5509 5507 5505 5503 5502 5501 5499 5496 5493 5492 5490 5489 5488 5487 5487 5486 5485 5483 5482 5481 5480 5479 5479 5479 5481 5480 5480 5480 5481 5482
5446 5457 5457 5460 5468 5470 5472 5474 5476 5482 5493 5508 5505 5501 5498 5497 5496 5495 5493 5493 5491 5488 5484 5482 5480 5479 5478 5477 5476 5475 5474 5473 5472 5471 5471 5469 5469 5470 5471 5471 5471 5470 5471 5471
5429 5439 5439 5444 5466 5470 5469 5472 5473 5476 5491 5498 5493 5493 5491 5489 5488 5486 5484 5483 5481 5478 5475 5473 5470 5469 5467 5466 5465 5463 5462 5462 5461 5460 5460 5459 5459 5460 5460 5461 5461 5460 5460 5460
5413 5418 5420 5457 5469 5472 5470 5473 5474 5477 5483 5485 5485 5483 5480 5479 5477 5475 5474 5472 5469 5466 5464 5462 5460 5458 5457 5456 5454 5452 5451 5451 5450 5449 5449 5449 5449 5448 5448 5449 5450 5449 5450 5451
5403 5403 5418 5445 5456 5457 5456 5460 5468 5469 5473 5473 5472 5467 5464 5467 5467 5465 5463 5460 5457 5455 5453 5451 5450 5448 5446 5444 5443 5441 5440 5439 5438 5438 5438 5438 5438 5437 5437 5438 5439 5440 5441 5441
5395 5398 5411 5438 5450 5452 5450 5446 5456 5457 5459 5459 5457 5447 5451 5456 5454 5452 5450 5448 5446 5443 5441 5439 5437 5435 5434 5432 5431 5430 5429 5428 5428 5427 5427 5427 5427 5427 5427 5427 5428 5431 5432 5432
5391 5391 5407 5431 5437 5440 5429 5434 5443 5444 5446 5445 5443 5443 5444 5442 5440 5439 5438 5436 5434 5431 5428 5427 5425 5423 5421 5420 5419 5419 5418 5417 5417 5417 5417 5417 5417 5416 5416 5417 5419 5421 5422 5424
5383 5383 5400 5425 5423 5421 5422 5427 5429 5430 5431 5432 5431 5432 5431 5429 5427 5426 5424 5423 5421 5417 5416 5415 5413 5411 5410 5408 5408 5408 5407 5407 5406 5406 5407 5408 5407 5407 5407 5407 5409 5411 5413 5415
5386 5396 5407 5412 5414 5416 5415 5415 5417 5418 5419 5420 5419 5418 5418 5417 5414 5413 5412 5409 5407 5405 5403 5402 5400 5399 5398 5398 5397 5397 5396 5395 5395 5395 5396 5396 5396 5396 5396 5397 5398 5400 5403 5406
5377 5386 5395 5399 5401 5403 5405 5405 5406 5407 5407 5407 5405 5404 5403 5401 5400 5398 5398 5396 5394 5393 5391 5390 5389 5387 5386 5387 5386 5385 5385 5385 5385 5385 5385 5385 5385 5385 5385 5386 5387 5390 5392 5396
5370 5379 5384 5389 5390 5392 5393 5393 5394 5394 5395 5394 5393 5391 5390 5387 5386 5384 5384 5382 5381 5379 5379 5379 5378 5377 5377 5376 5375 5374 5374 5374 5375 5375 5374 5375 5375 5375 5376 5377 5377 5380 5383 5386
5368 5374 5374 5377 5380 5382 5381 5381 5381 5381 5381 5381 5380 5379 5377 5375 5373 5372 5371 5369 5368 5367 5367 5367 5367 5366 5366 5365 5364 5364 5364 5364 5364 5364 5365 5365 5366 5368 5369 5370 5373 5375 5377 5379
5367 5368 5367 5368 5368 5368 5368 5369 5369 5368 5368 5366 5365 5365 5364 5362 5361 5359 5358 5357 5356 5356 5356 5356 5355 5355 5355 5354 5354 5353 5353 5353 5353 5354 5355 5355 5356 5358 5361 5365 5366 5368 5371 5374
5355 5356 5355 5355 5354 5354 5354 5354 5354 5353 5352 5352 5351 5351 5350 5349 5348 5347 5345 5345 5345 5345 5345 5345 5345 5345 5344 5344 5344 5343 5343 5344 5344 5344 5344 5345 5346 5348 5350 5354 5357 5361 5364 5366
5343 5344 5343 5341 5340 5340 5339 5339 5338 5338 5337 5337 5337 5336 5336 5335 5334 5334 5334 5334 5334 5334 5334 5334 5334 5334 5334 5334 5334 5334 5334 5334 5335 5335 5336 5338 5339 5340 5342 5345 5348 5352 5356 5360
5330 5329 5328 5326 5325 5324 5324 5324 5324 5324 5324 5324 5323 5323 5323 5322 5321 5321 5321 5322 5322 5323 5323 5324 5324 5324 5324 5324 5324 5324 5325 5327 5327 5328 5329 5330 5332 5333 5335 5337 5340 5344 5347 5351
5319 5316 5315 5313 5312 5312 5312 5312 5312 5312 5311 5311 5311 5311 5310 5310 5310 5310 5310 5310 5311 5312 5312 5313 5313 5314 5314 5314 5314 5315 5316 5317 5319 5320 5321 5322 5324 5326 5328 5330 5333 5337 5341 5344
5309 5308 5306 5304 5302 5301 5301 5301 5301 5300 5300 5300 5300 5299 5298 5299 5298 5298 5298 5299 5300 5301 5302 5302 5303 5304 5304 5304 5305 5306 5307 5308 5310 5311 5313 5315 5317 5320 5322 5325 5327 5331 5335 5338
5297 5296 5294 5294 5293 5292 5290 5290 5289 5288 5288 5288 5288 5288 5287 5287 5288 5288 5288 5288 5289 5291 5293 5293 5295 5295 5295 5296 5298 5298 5299 5300 5302 5304 5306 5309 5312 5314 5316 5319 5322 5325 5328 5332
5285 5285 5284 5283 5282 5281 5280 5279 5277 5277 5277 5277 5277 5277 5277 5277 5277 5278 5278 5278 5280 5281 5283 5285 5285 5286 5287 5288 5290 5291 5292 5293 5295 5297 5299 5301 5304 5307 5309 5313 5316 5319 5322 5325
5273 5273 5273 5271 5271 5270 5269 5268 5267 5266 5267 5267 5267 5266 5266 5267 5267 5267 5268 5269 5272 5273 5275 5277 5277 5278 5279 5281 5283 5283 5284 5285 5287 5289 5292 5295 5298 5300 5303 5306 5309 5313 5316 5319
5263 5262 5262 5261 5260 5259 5259 5258 5258 5258 5258 5258 5257 5257 5257 5257 5258 5259 5260 5261 5264 5266 5267 5267 5268 5270 5272 5274 5274 5275 5276 5278 5280 5282 5285 5288 5291 5294 5297 5301 5304 5307 5310 5312
5254 5254 5253 5252 5251 5250 5249 5249 5249 5249 5249 5248 5248 5248 5248 5249 5249 5250 5252 5254 5255 5258 5258 5259 5261 5264 5266 5266 5266 5267 5269 5270 5273 5275 5278 5281 5284 5287 5291 5294 5298 5301 5304 5307
5246 5245 5244 5243 5242 5241 5241 5241 5241 5241 5240 5240 5240 5240 5240 5241 5242 5242 5243 5246 5248 5249 5250 5252 5255 5257 5258 5257 5258 5259 5261 5263 5266 5268 5271 5274 5278 5281 5284 5288 5292 5295 5299 5302
5237 5236 5235 5234 5234 5234 5234 5233 5233 5233 5233 5233 5233 5233 5233 5233 5233 5235 5235 5236 5239 5240 5241 5243 5246 5248 5248 5249 5250 5252 5254 5257 5260 5263 5265 5268 5272 5276 5279 5283 5287 5291 5294 5298
5229 5228 5228 5227 5227 5227 5227 5227 5227 5227 5227 5227 5227 5227 5227 5227 5227 5228 5228 5230 5231 5233 5233 5234 5236 5238 5240 5242 5244 5246 5249 5252 5255 5257 5261 5264 5268 5271 5275 5279 5283 5287 5291 5295
5222 5222 5221 5221 5221 5221 5220 5220 5220 5220 5221 5221 5221 5221 5221 5222 5222 5222 5223 5224 5225 5226 5227 5228 5230 5232 5234 5237 5239 5242 5245 5248 5251 5254 5258 5261 5265 5268 5272 5276 5280 5284 5288 5292